Tracking 29747 objects as of 10-Oct-2024
HD Live streaming from Space Station
objects crossing your sky now

DELTA 1 DEB

Track DELTA 1 DEB now!
10-day predictions


NORAD ID: 21686
Int'l Code: 1975-052JN
Perigee: 752.0 km
Apogee: 984.0 km
Inclination: 100.0 °
Period: 102.2 minutes
Semi major axis: 7239 km
RCS: 0.0161 m2 (small)
Launch date: June 12, 1975
Source: United States (US)
Launch site: AIR FORCE WESTERN TEST RANGE (AFWTR)

Note: This is SATELLITE DEBRIS
Your satellite tracking list
Your tracking list is empty




NASA's NSSDC Master Catalog

Two Line Element Set (TLE):
1 21686U 75052JN  24283.10369748  .00020035  00000-0  10163-1 0  9991
2 21686  99.9894 220.4966 0160285 199.8578 159.6303 14.09561590667535
Source of the keplerian elements: AFSPC